Weather History for Alma, GA

Change the Weather History Date:

Monday, April 1, 2013

  Actual Average Record
Temperature  
Mean Temperature 67 °F 63 °F  
Max Temperature 79 °F 76 °F 90 °F (1974)
Min Temperature 54 °F 51 °F 31 °F (1987)
Degree Days  
Heating Degree Days 0 4  
Month to date heating degree days 0 4  
Since 1 July heating degree days 1527 1593  
Cooling Degree Days 2 2  
Month to date cooling degree days 2 2  
Year to date cooling degree days 35 56  
Growing Degree Days 19 (Base 50)    
Moisture  
Dew Point 57 °F    
Average Humidity 68    
Maximum Humidity 97    
Minimum Humidity 39    
Precipitation  
Precipitation 0.00 in 0.12 in 1.18 in (2005)
Month to date precipitation 0.00 0.12  
Year to date precipitation 12.40 12.93  
Snow  
Snow 0.00 in 0.00 in 0.00 in ()
Month to date snowfall 0.0 0.0  
Since 1 July snowfall T 0.1  
Snow Depth 0.00 in    
Sea Level Pressure  
Sea Level Pressure 29.95 in    
Wind  
Wind Speed 7 mph (WSW)    
Max Wind Speed 20 mph    
Max Gust Speed 24 mph    
Visibility 10 miles    
Events      
T = Trace of Precipitation, MM = Missing Value Source: NWS Daily Summary

Daily Weather History Graph

Daily Weather History Graph

Search for Another Location

Airport:

Trip Planner

Search our weather history database for the weather conditions in past years. The results will help you decide how hot, cold, wet, or windy it might be!

Date:

Astronomy

Apr. 01, 2013 Rise Set
Actual Time 7:18 AM EDT 7:49 PM EDT
Civil Twilight 6:53 AM EDT 8:14 PM EDT
Nautical Twilight 6:25 AM EDT 8:42 PM EDT
Astronomical Twilight 5:56 AM EDT 9:12 PM EDT
Moon 12:40 AM EDT (4/1) 11:19 AM EDT (4/1)
Length of Visible Light 13h 20m
Length of Day
12h 31m
Waning Gibbous, 67% of the Moon is Illuminated
Apr 1
Waning Gibbous
Apr 3
Last Quarter
Apr 10
New
Apr 18
First Quarter
Apr 25
Full

Hourly Weather History & Observations

Time (EDT) Temp. Dew Point Humidity Pressure Visibility Wind Dir Wind Speed Gust Speed Precip Events Conditions
12:53 AM 63.0 °F 57.0 °F 81% 29.96 in 10.0 mi SSW 8.1 mph - N/A   Clear
1:53 AM 61.0 °F 57.0 °F 87% 29.95 in 10.0 mi South 4.6 mph - N/A   Scattered Clouds
2:53 AM 59.0 °F 57.0 °F 93% 29.93 in 10.0 mi South 4.6 mph - N/A   Partly Cloudy
3:53 AM 60.1 °F 57.9 °F 93% 29.92 in 10.0 mi Calm Calm - N/A   Overcast
4:53 AM 61.0 °F 59.0 °F 93% 29.91 in 9.0 mi South 3.5 mph - N/A   Scattered Clouds
5:53 AM 61.0 °F 59.0 °F 93% 29.93 in 9.0 mi SSW 5.8 mph - N/A   Overcast
6:53 AM 62.1 °F 59.0 °F 90% 29.94 in 9.0 mi SSW 4.6 mph - N/A   Mostly Cloudy
7:53 AM 62.1 °F 60.1 °F 93% 29.95 in 7.0 mi SW 6.9 mph - N/A   Overcast
8:53 AM 63.0 °F 60.1 °F 90% 29.97 in 8.0 mi SW 8.1 mph - N/A   Overcast
9:46 AM 64.4 °F 60.8 °F 88% 29.98 in 10.0 mi West 9.2 mph - N/A   Overcast
9:53 AM 64.9 °F 60.1 °F 84% 29.97 in 10.0 mi WSW 9.2 mph - N/A   Overcast
10:38 AM 66.2 °F 60.8 °F 83% 29.98 in 10.0 mi West 11.5 mph 17.3 mph N/A   Overcast
10:53 AM 66.9 °F 60.1 °F 79% 29.97 in 10.0 mi West 6.9 mph - N/A   Overcast
11:40 AM 69.8 °F 60.8 °F 73% 29.98 in 10.0 mi West 8.1 mph - N/A   Mostly Cloudy
11:53 AM 71.1 °F 59.0 °F 66% 29.97 in 10.0 mi West 10.4 mph 19.6 mph N/A   Mostly Cloudy
12:53 PM 72.0 °F 57.9 °F 61% 29.96 in 10.0 mi WNW 9.2 mph - N/A   Mostly Cloudy
1:53 PM 77.0 °F 55.0 °F 47% 29.94 in 10.0 mi West 16.1 mph 21.9 mph N/A   Clear
2:53 PM 77.0 °F 55.0 °F 47% 29.93 in 10.0 mi WNW 12.7 mph - N/A   Scattered Clouds
3:53 PM 78.1 °F 53.1 °F 42% 29.92 in 10.0 mi West 13.8 mph 20.7 mph N/A   Partly Cloudy
4:53 PM 79.0 °F 52.0 °F 39% 29.91 in 10.0 mi WNW 12.7 mph - N/A   Partly Cloudy
5:53 PM 77.0 °F 50.0 °F 39% 29.91 in 10.0 mi West 10.4 mph 21.9 mph N/A   Partly Cloudy
6:53 PM 75.9 °F 51.1 °F 42% 29.91 in 10.0 mi West 12.7 mph 18.4 mph N/A   Clear
7:53 PM 72.0 °F 52.0 °F 49% 29.93 in 10.0 mi West 4.6 mph - N/A   Clear
8:53 PM 68.0 °F 53.1 °F 59% 29.94 in 10.0 mi Calm Calm - N/A   Clear
9:53 PM 61.0 °F 54.0 °F 78% 29.96 in 10.0 mi Calm Calm - N/A   Clear
10:53 PM 59.0 °F 54.0 °F 83% 29.98 in 10.0 mi Calm Calm - N/A   Scattered Clouds
11:53 PM 57.0 °F 54.0 °F 89% 30.00 in 10.0 mi Calm Calm - N/A   Clear